Weather History for Atwater, CA

Change the Weather History Date:

Tuesday, October 22, 2013

  Actual Average (KMCE) Record (KMCE)
Temperature  
Mean Temperature 63 °F 62 °F  
Max Temperature 84 °F 76 °F 87 °F (2003)
Min Temperature 42 °F 47 °F 42 °F (2001)
Degree Days  
Heating Degree Days 2    
Month to date heating degree days  
Since 1 July heating degree days  
Cooling Degree Days 0    
Month to date cooling degree days  
Year to date cooling degree days  
Growing Degree Days 13 (Base 50)    
Moisture  
Dew Point 45 °F    
Average Humidity 75    
Maximum Humidity 100    
Minimum Humidity 19    
Precipitation  
Precipitation 0.00 in 0.03 in 0.37 in (1973)
Month to date precipitation 0.39  
Year to date precipitation 9.38  
Since 1 July precipitation 0.70  
Snow  
Snow 0.00 in - - ()
Month to date snowfall  
Since 1 July snowfall  
Since 1 September snowfall  
Snow Depth -    
Sea Level Pressure  
Sea Level Pressure 29.95 in    
Wind  
Wind Speed 1 mph (NNW)    
Max Wind Speed 8 mph    
Max Gust Speed -    
Visibility 9 miles    
Events      
T = Trace of Precipitation, MM = Missing Value Source: NWS Daily Summary

Daily Weather History Graph

Daily Weather History Graph

Search for Another Location

Airport:

Trip Planner

Search our weather history database for the weather conditions in past years. The results will help you decide how hot, cold, wet, or windy it might be!

Date:

Astronomy

Oct. 22, 2013 Rise Set
Actual Time 7:17 AM PDT 6:15 PM PDT
Civil Twilight 6:50 AM PDT 6:42 PM PDT
Nautical Twilight 6:20 AM PDT 7:12 PM PDT
Astronomical Twilight 5:49 AM PDT 7:42 PM PDT
Moon 9:03 PM PDT (10/22) 10:46 AM PDT (10/22)
Length of Visible Light 11h 51m
Length of Day
10h 58m
Waning Gibbous, 86% of the Moon is Illuminated
Oct 22
Waning Gibbous
Oct 26
Last Quarter
Nov 3
New
Nov 9
First Quarter
Nov 17
Full

Hourly Weather History & Observations

Time (PDT) Temp. Windchill Dew Point Humidity Pressure Visibility Wind Dir Wind Speed Gust Speed Precip Events Conditions
12:15 AM 51.8 °F - 44.6 °F 76% 29.96 in 10.0 mi North - - N/A   Clear
12:35 AM 51.8 °F - 46.4 °F 82% 29.96 in 9.0 mi North - - N/A   Clear
12:55 AM 53.6 °F - 48.2 °F 82% 29.96 in 10.0 mi Calm Calm - N/A   Clear
1:15 AM 53.6 °F - 48.2 °F 82% 29.96 in 10.0 mi North - - N/A   Clear
1:35 AM 51.8 °F - 46.4 °F 82% 29.96 in 10.0 mi Calm Calm - N/A   Clear
1:55 AM 50.0 °F - 48.2 °F 94% 29.96 in 10.0 mi Calm Calm - N/A   Clear
2:15 AM 48.2 °F - 48.2 °F 100% 29.96 in 10.0 mi Calm Calm - N/A   Clear
2:35 AM 51.8 °F - 50.0 °F 94% 29.96 in 10.0 mi Calm Calm - N/A   Clear
2:55 AM 48.2 °F - 46.4 °F 93% 29.96 in 10.0 mi Calm Calm - N/A   Clear
3:15 AM 48.2 °F - 48.2 °F 100% 29.96 in 9.0 mi Calm Calm - N/A   Clear
3:35 AM 46.4 °F - 46.4 °F 100% 29.96 in 9.0 mi Calm Calm - N/A   Clear
3:55 AM 46.4 °F - 46.4 °F 100% 29.96 in 10.0 mi Calm Calm - N/A   Clear
4:15 AM 44.6 °F 43.1 °F 44.6 °F 100% 29.96 in 7.0 mi SSE 3.5 mph - N/A   Clear
4:35 AM 44.6 °F - 44.6 °F 100% 29.96 in 7.0 mi Calm Calm - N/A   Clear
4:55 AM 44.6 °F - 44.6 °F 100% 29.96 in 7.0 mi Calm Calm - N/A   Clear
5:15 AM 46.4 °F - 46.4 °F 100% 29.97 in 8.0 mi Calm Calm - N/A   Clear
5:35 AM 44.6 °F - 44.6 °F 100% 29.97 in 10.0 mi Calm Calm - N/A   Clear
5:55 AM 44.6 °F - 44.6 °F 100% 29.97 in 10.0 mi Calm Calm - N/A   Clear
6:15 AM 44.6 °F - 44.6 °F 100% 29.98 in 10.0 mi Calm Calm - N/A   Clear
6:35 AM 44.6 °F - 44.6 °F 100% 29.98 in 10.0 mi Calm Calm - N/A   Clear
6:45 AM 42.8 °F - 42.8 °F 100% 29.98 in 7.0 mi Calm Calm - N/A   Clear
6:55 AM 42.8 °F - 42.8 °F 100% 29.98 in 10.0 mi Calm Calm - N/A   Clear
7:45 AM 44.6 °F - 44.6 °F 100% 29.99 in 7.0 mi Calm Calm - N/A   Clear
8:45 AM 55.4 °F - 39.2 °F 54% 30.01 in 7.0 mi Calm Calm - N/A   Clear
9:45 AM 62.6 °F - 41.0 °F 45% 30.01 in 10.0 mi Calm Calm - N/A   Clear
10:45 AM 69.8 °F - 42.8 °F 38% 30.00 in 10.0 mi Calm Calm - N/A   Clear
12:45 PM 78.8 °F - 37.4 °F 23% 29.97 in 7.0 mi NW 8.1 mph - N/A   Clear
1:45 PM 82.4 °F - 39.2 °F 21% 29.94 in 10.0 mi Variable 3.5 mph - N/A   Clear
2:45 PM 84.2 °F - 37.4 °F 19% 29.92 in 7.0 mi NW 6.9 mph - N/A   Clear
3:45 PM 84.2 °F - 39.2 °F 20% 29.91 in 7.0 mi NW 8.1 mph - N/A   Clear
4:45 PM 84.2 °F - 39.2 °F 20% 29.89 in 7.0 mi North 6.9 mph - N/A   Clear
5:45 PM 78.8 °F - 42.8 °F 28% 29.89 in 7.0 mi North 6.9 mph - N/A   Clear
6:50 PM 68.0 °F - 44.6 °F 43% 29.89 in 7.0 mi North 6.9 mph - N/A   Clear
7:45 PM 62.6 °F - 46.4 °F 55% 29.90 in 7.0 mi Variable 4.6 mph - N/A   Clear
8:45 PM 62.6 °F - 46.4 °F 55% 29.90 in 7.0 mi Variable 4.6 mph - N/A   Clear
9:15 PM 59.0 °F - 44.6 °F 59% 29.91 in 10.0 mi North - - N/A   Clear
9:35 PM 57.2 °F - 48.2 °F 72% 29.91 in 10.0 mi North - - N/A   Clear
9:55 PM 55.4 °F - 48.2 °F 77% 29.91 in 10.0 mi North - - N/A   Clear
10:15 PM 55.4 °F - 46.4 °F 72% 29.92 in 10.0 mi North - - N/A   Clear
10:35 PM 57.2 °F - 48.2 °F 72% 29.92 in 10.0 mi North - - N/A   Clear
10:55 PM 53.6 °F - 48.2 °F 82% 29.92 in 10.0 mi North - - N/A   Clear
11:15 PM 53.6 °F - 48.2 °F 82% 29.92 in 10.0 mi Calm Calm - N/A   Clear
11:35 PM 51.8 °F - 50.0 °F 94% 29.91 in 6.0 mi Calm Calm - N/A   Clear
11:55 PM 51.8 °F - 51.8 °F 100% 29.91 in 7.0 mi Calm Calm - N/A   Clear